SQ3VAS-10 Weather Reports


time (UTC)temp
F
wind
direction
speed
knots
gust
knots
rain 1hr
in
rain 24hr
in
rain mn
in
humidity
%
barometer
mb
20260902065727 64 0.0 0.0 0.00 0.00 0.00 82 1019.7
20260902064756 64 0.0 0.0 0.00 0.00 0.00 82 1019.6
20260902063825 64 0.0 0.0 0.00 0.00 0.00 80 1019.7
20260902062856 66 0.0 0.0 0.00 0.00 0.00 76 1019.6
20260902061917 65 0.0 0.0 0.00 0.00 0.00 81 1019.6
20260902060941 64 0.0 0.0 0.00 0.00 0.00 81 1019.6
20260902060006 61 0.0 0.0 0.00 0.00 0.00 89 1019.7
20260902055034 60 0.0 0.0 0.00 0.00 0.00 90 1019.6
20260902054101 60 0.0 0.0 0.00 0.00 0.00 90 1019.7
20260902053129 59 0.0 0.0 0.00 0.00 0.00 90 1019.7
20260902052156 59 0.0 0.0 0.00 0.00 0.00 92 1019.6
20260902051223 59 0.0 0.0 0.00 0.00 0.00 91 1019.5
20260902050250 58 0.0 0.0 0.00 0.00 0.00 91 1019.5
20260902045317 58 0.0 0.0 0.00 0.00 0.00 91 1019.3
20260902044345 58 0.0 0.0 0.00 0.00 0.00 91 1019.3
20260902043413 58 0.0 0.0 0.00 0.00 0.00 91 1019.2
20260902042442 58 0.0 0.0 0.00 0.00 0.00 90 1019.2
20260902041510 58 0.0 0.0 0.00 0.00 0.00 91 1019.1
20260902040538 58 0.0 0.0 0.00 0.00 0.00 91 1019.0
20260902035606 58 0.0 0.0 0.00 0.00 0.00 92 1019.0
20260902034632 58 0.0 0.0 0.00 0.00 0.00 91 1019.0
20260902033700 58 0.0 0.0 0.00 0.00 0.00 91 1019.0
20260902032728 58 0.0 0.0 0.00 0.00 0.00 90 1018.9
20260902031756 58 0.0 0.0 0.00 0.00 0.00 91 1019.0
20260902030823 58 0.0 0.0 0.00 0.00 0.00 91 1019.0
20260902025850 58 0.0 0.0 0.00 0.00 0.00 91 1018.9
20260902024917 57 0.0 0.0 0.00 0.00 0.00 92 1019.0
20260902023945 58 0.0 0.0 0.00 0.00 0.00 86 1019.0
20260902023013 58 0.0 0.0 0.00 0.00 0.00 86 1019.1
20260902022041 58 0.0 0.0 0.00 0.00 0.00 84 1018.9
20260902021109 59 0.0 0.0 0.00 0.00 0.00 86 1018.8
20260902020137 59 0.0 0.0 0.00 0.00 0.00 85 1018.8
20260902015205 60 0.0 0.0 0.00 0.00 0.00 85 1018.7
20260902014233 60 0.0 0.0 0.00 0.00 0.00 85 1018.8
20260902013301 60 0.0 0.0 0.00 0.00 0.00 86 1018.7
20260902012329 60 0.0 0.0 0.00 0.00 0.00 85 1018.7
20260902011356 60 0.0 0.0 0.00 0.00 0.00 84 1018.6
20260902010424 61 0.0 0.0 0.00 0.00 0.00 84 1018.5
20260902005452 61 0.0 0.0 0.00 0.00 0.00 83 1018.5
20260902004520 62 0.0 0.0 0.00 0.00 0.00 83 1018.6
20260902003548 61 0.0 0.0 0.00 0.00 0.00 83 1018.6
20260902002615 61 0.0 0.0 0.00 0.00 0.00 82 1018.6
20260902001643 62 0.0 0.0 0.00 0.00 0.00 82 1018.6
20260902000712 62 0.0 0.0 0.00 0.00 0.00 82 1018.5
20260901235740 62 0.0 0.0 0.00 0.00 0.00 83 1018.6
20260901234807 63 0.0 0.0 0.00 0.00 0.00 84 1018.5
20260901233835 63 0.0 0.0 0.00 0.00 0.00 85 1018.4
20260901232903 63 0.0 0.0 0.00 0.00 0.00 84 1018.3
20260901231930 63 0.0 0.0 0.00 0.00 0.00 84 1018.4
20260901230957 63 0.0 0.0 0.00 0.00 0.00 84 1018.4
20260901230025 63 0.0 0.0 0.00 0.00 0.00 85 1018.4
20260901225052 62 0.0 0.0 0.00 0.00 0.00 87 1018.5
20260901224121 62 0.0 0.0 0.00 0.00 0.00 87 1018.5
20260901223147 62 0.0 0.0 0.00 0.00 0.00 87 1018.4
20260901222215 62 0.0 0.0 0.00 0.00 0.00 89 1018.4
20260901221242 62 0.0 0.0 0.00 0.00 0.00 88 1018.4
20260901220310 62 0.0 0.0 0.00 0.00 0.00 89 1018.4
20260901215338 62 0.0 0.0 0.00 0.00 0.00 88 1018.3
20260901214406 62 0.0 0.0 0.00 0.00 0.00 87 1018.2
20260901213434 62 0.0 0.0 0.00 0.00 0.00 87 1018.2
20260901212502 62 0.0 0.0 0.00 0.00 0.00 86 1018.2
20260901211529 63 0.0 0.0 0.00 0.00 0.00 87 1018.2
20260901210557 63 0.0 0.0 0.00 0.00 0.00 86 1018.2
20260901205625 63 0.0 0.0 0.00 0.00 0.00 86 1018.2
20260901204653 63 0.0 0.0 0.00 0.00 0.00 87 1018.1
20260901203720 63 0.0 0.0 0.00 0.00 0.00 88 1018.1
20260901202748 62 0.0 0.0 0.00 0.00 0.00 89 1018.3
20260901201816 63 0.0 0.0 0.00 0.00 0.00 88 1018.0
20260901200844 63 0.0 0.0 0.00 0.00 0.00 88 1018.0
20260901195912 63 0.0 0.0 0.00 0.00 0.00 87 1017.8
20260901194938 63 0.0 0.0 0.00 0.00 0.00 88 1017.9
20260901194006 63 0.0 0.0 0.00 0.00 0.00 88 1017.9
20260901193034 64 0.0 0.0 0.00 0.00 0.00 88 1017.9
20260901192102 64 0.0 0.0 0.00 0.00 0.00 87 1017.9
20260901191129 64 0.0 0.0 0.00 0.00 0.00 87 1017.8
20260901190157 64 0.0 0.0 0.00 0.00 0.00 86 1017.7
20260901185224 64 0.0 0.0 0.00 0.00 0.00 88 1017.7
20260901184252 64 0.0 0.0 0.00 0.00 0.00 87 1017.6
20260901183320 64 0.0 0.0 0.00 0.00 0.00 87 1017.6
20260901182348 64 0.0 0.0 0.00 0.00 0.00 88 1017.6
20260901181415 64 0.0 0.0 0.00 0.00 0.00 90 1017.5
20260901180444 64 0.0 0.0 0.00 0.00 0.00 91 1017.5
20260901175512 64 0.0 0.0 0.00 0.00 0.00 89 1017.4
20260901174542 66 0.0 0.0 0.00 0.00 0.00 85 1017.3
20260901173611 70 0.0 0.0 0.00 0.00 0.00 71 1017.1
20260901172639 72 0.0 0.0 0.00 0.00 0.00 62 1016.2
20260901171707 72 0.0 0.0 0.00 0.00 0.00 61 1016.3
20260901170735 73 0.0 0.0 0.00 0.00 0.00 61 1016.2
20260901165802 73 0.0 0.0 0.00 0.00 0.00 59 1016.2
20260901164830 73 0.0 0.0 0.00 0.00 0.00 59 1016.3
20260901163859 74 0.0 0.0 0.00 0.00 0.00 57 1016.2
20260901162926 75 0.0 0.0 0.00 0.00 0.00 54 1016.2
20260901161953 74 0.0 0.0 0.00 0.00 0.00 54 1016.1
20260901161020 75 0.0 0.0 0.00 0.00 0.00 54 1016.1
20260901160047 75 0.0 0.0 0.00 0.00 0.00 53 1016.0
20260901155116 74 0.0 0.0 0.00 0.00 0.00 55 1015.9
20260901154145 75 0.0 0.0 0.00 0.00 0.00 52 1015.8
20260901153214 79 0.0 0.0 0.00 0.00 0.00 51 1015.6
20260901152240 77 0.0 0.0 0.00 0.00 0.00 52 1015.7
20260901151308 79 0.0 0.0 0.00 0.00 0.00 51 1015.6
20260901150336 77 0.0 0.0 0.00 0.00 0.00 54 1015.6
20260901145402 78 0.0 0.0 0.00 0.00 0.00 52 1015.6
20260901144428 78 0.0 0.0 0.00 0.00 0.00 53 1015.6
20260901143455 75 0.0 0.0 0.00 0.00 0.00 56 1015.7
20260901142522 76 0.0 0.0 0.00 0.00 0.00 57 1015.6
20260901141550 75 0.0 0.0 0.00 0.00 0.00 60 1015.8
20260901140616 76 0.0 0.0 0.00 0.00 0.00 58 1015.8
20260901135642 74 0.0 0.0 0.00 0.00 0.00 59 1015.9
20260901134707 73 0.0 0.0 0.00 0.00 0.00 62 1016.0
20260901133736 72 0.0 0.0 0.00 0.00 0.00 67 1016.0
20260901132806 74 0.0 0.0 0.00 0.00 0.00 66 1015.9
20260901131833 73 0.0 0.0 0.00 0.00 0.00 69 1016.0
20260901130857 73 0.0 0.0 0.00 0.00 0.00 73 1016.1
20260901125924 71 0.0 0.0 0.00 0.00 0.00 77 1016.1
20260901124949 72 0.0 0.0 0.00 0.00 0.00 81 1016.0
20260901124014 69 0.0 0.0 0.00 0.00 0.00 83 1016.2
20260901123041 67 0.0 0.0 0.00 0.00 0.00 88 1016.3
20260901122108 65 0.0 0.0 0.00 0.00 0.00 88 1016.4
20260901121136 66 0.0 0.0 0.00 0.00 0.00 87 1016.3
20260901120207 70 0.0 0.0 0.00 0.00 0.00 71 1016.3
20260901115235 74 0.0 0.0 0.00 0.00 0.00 70 1016.0
20260901114259 71 0.0 0.0 0.00 0.00 0.00 75 1016.0
20260901113325 69 0.0 0.0 0.00 0.00 0.00 84 1016.0
20260901112353 67 0.0 0.0 0.00 0.00 0.00 87 1016.2
20260901111423 67 0.0 0.0 0.00 0.00 0.00 82 1016.0
20260901110453 73 0.0 0.0 0.00 0.00 0.00 63 1015.6
20260901105513 73 0.0 0.0 0.00 0.00 0.00 65 1015.6
20260901104525 72 0.0 0.0 0.00 0.00 0.00 69 1015.5
20260901103550 71 0.0 0.0 0.00 0.00 0.00 73 1015.5
20260901102617 68 0.0 0.0 0.00 0.00 0.00 79 1015.7
20260901101644 67 0.0 0.0 0.00 0.00 0.00 81 1015.5
20260901100712 67 0.0 0.0 0.00 0.00 0.00 79 1015.7
20260901095741 68 0.0 0.0 0.00 0.00 0.00 73 1015.7
20260901094809 70 0.0 0.0 0.00 0.00 0.00 71 1015.3
20260901093837 71 0.0 0.0 0.00 0.00 0.00 68 1015.1
20260901092904 70 0.0 0.0 0.00 0.00 0.00 69 1015.2
20260901091930 71 0.0 0.0 0.00 0.00 0.00 69 1015.1
20260901090956 69 0.0 0.0 0.00 0.00 0.00 73 1015.3
20260901090023 68 0.0 0.0 0.00 0.00 0.00 75 1015.2
20260901085048 67 0.0 0.0 0.00 0.00 0.00 78 1015.3
20260901084115 66 0.0 0.0 0.00 0.00 0.00 82 1015.3
20260901083142 65 0.0 0.0 0.00 0.00 0.00 84 1015.2
20260901082210 65 0.0 0.0 0.00 0.00 0.00 83 1015.2
20260901081238 66 0.0 0.0 0.00 0.00 0.00 80 1015.1
20260901080305 66 0.0 0.0 0.00 0.00 0.00 79 1015.0
20260901075332 66 0.0 0.0 0.00 0.00 0.00 79 1015.0
20260901074400 65 0.0 0.0 0.00 0.00 0.00 80 1014.9
20260901073427 66 0.0 0.0 0.00 0.00 0.00 81 1014.7
20260901072455 65 0.0 0.0 0.00 0.00 0.00 80 1014.6
20260901071522 65 0.0 0.0 0.00 0.00 0.00 81 1014.6
20260901070550 65 0.0 0.0 0.00 0.00 0.00 81 1014.4